Time,TemperatureF,DewpointF,PressureIn,WindDirection,WindDirectionDegrees,WindSpeedMPH,WindSpeedGustMPH,Humidity,HourlyPrecipIn,Conditions,Clouds,dailyrainin,SoftwareType,DateUTC
2013-03-26 00:01:00,46.0,40.0,29.98,North,0,0.0,0.0,80,0.00,,,0.00,,2013-03-26 07:01:00,
2013-03-26 00:11:00,46.0,40.0,29.98,North,0,0.0,0.0,80,0.00,,,0.00,,2013-03-26 07:11:00,
2013-03-26 00:21:00,46.0,40.0,29.98,North,0,0.0,0.0,80,0.00,,,0.00,,2013-03-26 07:21:00,
2013-03-26 00:32:00,46.0,40.0,29.99,North,0,0.0,0.0,80,0.00,,,0.00,,2013-03-26 07:32:00,
2013-03-26 00:41:00,46.0,40.0,29.99,North,0,0.0,0.0,80,0.00,,,0.00,,2013-03-26 07:41:00,
2013-03-26 00:52:00,47.0,41.0,29.99,North,0,0.0,0.0,80,0.00,,,0.00,,2013-03-26 07:52:00,
2013-03-26 01:01:00,47.0,41.0,29.99,North,0,0.0,0.0,81,0.00,,,0.00,,2013-03-26 08:01:00,
2013-03-26 01:12:00,47.0,41.0,29.99,North,0,0.0,0.0,81,0.00,,,0.00,,2013-03-26 08:12:00,
2013-03-26 01:21:00,47.0,41.0,29.99,North,0,0.0,0.0,81,0.00,,,0.00,,2013-03-26 08:21:00,
2013-03-26 01:31:00,47.0,42.0,29.99,North,0,0.0,0.0,82,0.00,,,0.00,,2013-03-26 08:31:00,
2013-03-26 01:41:00,47.0,42.0,29.99,North,0,0.0,0.0,82,0.00,,,0.00,,2013-03-26 08:41:00,
2013-03-26 01:52:00,47.0,42.0,29.99,North,0,0.0,0.0,82,0.00,,,0.00,,2013-03-26 08:52:00,
2013-03-26 02:01:00,47.0,42.0,29.99,North,0,0.0,0.0,82,0.00,,,0.00,,2013-03-26 09:01:00,
2013-03-26 02:11:00,47.0,42.0,29.99,North,0,0.0,0.0,82,0.00,,,0.00,,2013-03-26 09:11:00,
2013-03-26 02:21:00,47.0,42.0,29.99,North,0,0.0,0.0,82,0.00,,,0.00,,2013-03-26 09:21:00,
2013-03-26 02:32:00,47.0,42.0,29.99,North,0,0.0,0.0,82,0.00,,,0.00,,2013-03-26 09:32:00,
2013-03-26 02:42:00,47.0,42.0,29.99,North,0,0.0,0.0,82,0.00,,,0.00,,2013-03-26 09:42:00,
2013-03-26 02:52:00,47.0,41.0,29.99,North,0,0.0,0.0,81,0.00,,,0.00,,2013-03-26 09:52:00,
2013-03-26 03:02:00,48.0,43.0,29.99,North,0,0.0,0.0,82,0.00,,,0.00,,2013-03-26 10:02:00,
2013-03-26 03:12:00,48.0,43.0,29.99,North,0,0.0,0.0,82,0.00,,,0.00,,2013-03-26 10:12:00,
2013-03-26 03:22:00,48.0,43.0,29.99,North,0,0.0,0.0,82,0.00,,,0.00,,2013-03-26 10:22:00,
2013-03-26 03:32:00,48.0,43.0,29.99,North,0,0.0,0.0,82,0.00,,,0.00,,2013-03-26 10:32:00,
2013-03-26 03:42:00,48.0,43.0,29.99,North,0,0.0,0.0,82,0.00,,,0.00,,2013-03-26 10:42:00,
2013-03-26 03:52:00,48.0,43.0,29.99,North,0,0.0,0.0,83,0.00,,,0.00,,2013-03-26 10:52:00,
2013-03-26 04:02:00,48.0,43.0,29.99,North,0,0.0,0.0,82,0.00,,,0.00,,2013-03-26 11:02:00,
2013-03-26 04:11:00,48.0,43.0,29.99,North,0,0.0,0.0,82,0.00,,,0.00,,2013-03-26 11:11:00,
2013-03-26 04:21:00,48.0,43.0,29.99,North,0,0.0,0.0,82,0.00,,,0.00,,2013-03-26 11:21:00,
2013-03-26 04:31:00,48.0,45.0,30.00,North,0,0.0,0.0,89,0.00,,,0.00,,2013-03-26 11:31:00,
2013-03-26 04:42:00,48.0,45.0,30.00,North,0,0.0,0.0,89,0.00,,,0.00,,2013-03-26 11:42:00,
2013-03-26 04:52:00,48.0,44.0,29.99,SSE,163,0.0,6.0,86,0.01,,,0.01,,2013-03-26 11:52:00,
2013-03-26 05:01:00,48.0,44.0,29.99,SSE,163,0.0,6.0,86,0.01,,,0.01,,2013-03-26 12:01:00,
2013-03-26 05:11:00,48.0,44.0,29.99,SE,133,4.0,9.0,85,0.01,,,0.01,,2013-03-26 12:11:00,
2013-03-26 05:21:00,48.0,43.0,30.00,SSE,147,9.0,11.0,82,0.01,,,0.01,,2013-03-26 12:21:00,
2013-03-26 05:31:00,48.0,43.0,30.00,SE,138,7.0,11.0,82,0.01,,,0.01,,2013-03-26 12:31:00,
2013-03-26 05:41:00,48.0,43.0,30.00,SE,138,7.0,11.0,82,0.01,,,0.01,,2013-03-26 12:41:00,
2013-03-26 05:52:00,48.0,42.0,30.00,SSE,154,7.0,12.0,80,0.00,,,0.01,,2013-03-26 12:52:00,
2013-03-26 06:02:00,48.0,41.0,30.00,SSE,166,8.0,11.0,78,0.00,,,0.01,,2013-03-26 13:02:00,
2013-03-26 06:11:00,48.0,41.0,30.00,SSE,166,8.0,11.0,78,0.00,,,0.01,,2013-03-26 13:11:00,
2013-03-26 06:22:00,48.0,41.0,30.00,SE,144,8.0,10.0,78,0.00,,,0.01,,2013-03-26 13:22:00,
2013-03-26 06:31:00,48.0,41.0,29.99,SSE,149,6.0,9.0,78,0.00,,,0.01,,2013-03-26 13:31:00,
2013-03-26 06:41:00,48.0,41.0,29.99,SSE,149,6.0,9.0,78,0.00,,,0.01,,2013-03-26 13:41:00,
2013-03-26 06:52:00,48.0,41.0,29.99,ESE,117,5.0,11.0,77,0.00,,,0.01,,2013-03-26 13:52:00,
2013-03-26 07:01:00,48.0,41.0,29.99,SSE,147,5.0,10.0,77,0.00,,,0.01,,2013-03-26 14:01:00,
2013-03-26 07:11:00,48.0,41.0,29.99,SSE,147,5.0,10.0,77,0.00,,,0.01,,2013-03-26 14:11:00,
2013-03-26 07:21:00,48.0,41.0,29.99,ESE,113,6.0,9.0,77,0.00,,,0.01,,2013-03-26 14:21:00,
2013-03-26 07:31:00,47.0,41.0,30.00,ESE,121,5.0,7.0,78,0.00,,,0.01,,2013-03-26 14:31:00,
2013-03-26 07:41:00,47.0,41.0,30.00,ESE,121,5.0,7.0,78,0.00,,,0.01,,2013-03-26 14:41:00,
2013-03-26 07:52:00,47.0,41.0,30.00,SE,138,7.0,9.0,78,0.00,,,0.01,,2013-03-26 14:52:00,
2013-03-26 08:01:00,48.0,41.0,30.00,East,95,6.0,10.0,76,0.00,,,0.01,,2013-03-26 15:01:00,
2013-03-26 08:11:00,48.0,41.0,30.00,East,95,6.0,10.0,76,0.00,,,0.01,,2013-03-26 15:11:00,
2013-03-26 08:21:00,48.0,41.0,30.00,SSE,149,5.0,10.0,76,0.00,,,0.01,,2013-03-26 15:21:00,
2013-03-26 08:32:00,48.0,41.0,30.00,SE,140,2.0,8.0,77,0.00,,,0.01,,2013-03-26 15:32:00,
2013-03-26 08:42:00,48.0,41.0,30.00,SE,140,2.0,8.0,77,0.00,,,0.01,,2013-03-26 15:42:00,
2013-03-26 08:52:00,48.0,41.0,30.00,SSE,154,6.0,9.0,78,0.00,,,0.01,,2013-03-26 15:52:00,
2013-03-26 09:02:00,48.0,41.0,30.00,SE,140,6.0,9.0,78,0.00,,,0.01,,2013-03-26 16:02:00,
2013-03-26 09:12:00,48.0,41.0,30.00,SE,140,6.0,9.0,78,0.00,,,0.01,,2013-03-26 16:12:00,
2013-03-26 09:22:00,48.0,42.0,30.00,East,85,4.0,9.0,79,0.00,,,0.01,,2013-03-26 16:22:00,
2013-03-26 09:32:00,48.0,42.0,30.00,East,98,6.0,10.0,79,0.00,,,0.01,,2013-03-26 16:32:00,
2013-03-26 09:42:00,48.0,42.0,30.00,East,98,6.0,10.0,79,0.00,,,0.01,,2013-03-26 16:42:00,
2013-03-26 09:53:00,48.0,42.0,30.01,SE,137,6.0,8.0,81,0.00,,,0.01,,2013-03-26 16:53:00,
2013-03-26 10:02:00,49.0,44.0,30.01,SSE,151,5.0,10.0,84,0.00,,,0.01,,2013-03-26 17:02:00,
2013-03-26 10:12:00,49.0,44.0,30.01,SSE,151,5.0,10.0,84,0.00,,,0.01,,2013-03-26 17:12:00,
2013-03-26 10:22:00,49.0,45.0,30.01,SSE,149,4.0,8.0,86,0.00,,,0.01,,2013-03-26 17:22:00,
2013-03-26 10:32:00,49.0,46.0,30.01,SSE,149,6.0,9.0,89,0.00,,,0.01,,2013-03-26 17:32:00,
2013-03-26 10:41:00,49.0,46.0,30.01,SSE,149,6.0,9.0,89,0.00,,,0.01,,2013-03-26 17:41:00,
2013-03-26 10:52:00,49.0,46.0,30.01,SE,133,6.0,9.0,91,0.00,,,0.01,,2013-03-26 17:52:00,
2013-03-26 11:01:00,49.0,46.0,30.01,ESE,123,6.0,8.0,91,0.00,,,0.01,,2013-03-26 18:01:00,
2013-03-26 11:12:00,49.0,46.0,30.01,ESE,123,6.0,8.0,91,0.00,,,0.01,,2013-03-26 18:12:00,
2013-03-26 11:22:00,49.0,46.0,30.01,SSE,161,5.0,8.0,91,0.00,,,0.01,,2013-03-26 18:22:00,
2013-03-26 11:33:00,50.0,48.0,30.02,SSE,154,5.0,7.0,92,0.00,,,0.01,,2013-03-26 18:33:00,
2013-03-26 11:41:00,50.0,48.0,30.02,SSE,154,5.0,7.0,92,0.00,,,0.01,,2013-03-26 18:41:00,
2013-03-26 11:52:00,49.0,46.0,30.02,North,0,5.0,5.0,91,0.00,,,0.01,,2013-03-26 18:52:00,
2013-03-26 12:02:00,49.0,47.0,30.01,SSE,158,0.0,8.0,92,0.00,,,0.01,,2013-03-26 19:02:00,
2013-03-26 12:11:00,49.0,47.0,30.01,SSE,158,0.0,8.0,92,0.00,,,0.01,,2013-03-26 19:11:00,
2013-03-26 12:22:00,49.0,47.0,30.01,South,170,4.0,6.0,92,0.00,,,0.01,,2013-03-26 19:22:00,
2013-03-26 12:31:00,49.0,46.0,30.01,SSE,161,1.0,6.0,91,0.00,,,0.01,,2013-03-26 19:31:00,
2013-03-26 12:42:00,49.0,46.0,30.01,SSE,161,1.0,6.0,91,0.00,,,0.01,,2013-03-26 19:42:00,
2013-03-26 12:53:00,50.0,47.0,30.01,North,0,0.0,0.0,90,0.00,,,0.01,,2013-03-26 19:53:00,
2013-03-26 13:01:00,50.0,47.0,30.01,North,0,0.0,0.0,88,0.00,,,0.01,,2013-03-26 20:01:00,
2013-03-26 13:12:00,50.0,47.0,30.01,North,0,0.0,0.0,88,0.00,,,0.01,,2013-03-26 20:12:00,
2013-03-26 13:21:00,50.0,46.0,30.01,North,0,0.0,0.0,86,0.00,,,0.01,,2013-03-26 20:21:00,
2013-03-26 13:31:00,50.0,45.0,30.02,North,0,0.0,6.0,83,0.00,,,0.01,,2013-03-26 20:31:00,
2013-03-26 13:42:00,50.0,45.0,30.02,North,0,0.0,6.0,83,0.00,,,0.01,,2013-03-26 20:42:00,
2013-03-26 13:52:00,50.0,45.0,30.02,North,0,0.0,0.0,82,0.00,,,0.01,,2013-03-26 20:52:00,
2013-03-26 14:01:00,51.0,45.0,30.01,North,0,2.0,2.0,79,0.00,,,0.01,,2013-03-26 21:01:00,
2013-03-26 14:11:00,51.0,45.0,30.01,North,0,2.0,2.0,79,0.00,,,0.01,,2013-03-26 21:11:00,
2013-03-26 14:21:00,51.0,45.0,30.01,SE,145,0.0,6.0,81,0.00,,,0.01,,2013-03-26 21:21:00,
2013-03-26 14:32:00,51.0,45.0,30.01,SE,145,0.0,6.0,81,0.00,,,0.01,,2013-03-26 21:32:00,
2013-03-26 14:42:00,51.0,45.0,30.01,SE,145,0.0,6.0,81,0.00,,,0.01,,2013-03-26 21:42:00,
2013-03-26 16:22:00,50.0,46.0,29.98,SW,221,5.0,6.0,85,0.00,,,0.01,,2013-03-26 23:22:00,
2013-03-26 16:32:00,49.0,45.0,29.98,SW,219,0.0,8.0,85,0.00,,,0.01,,2013-03-26 23:32:00,
2013-03-26 16:42:00,49.0,45.0,29.98,SW,219,0.0,8.0,85,0.00,,,0.01,,2013-03-26 23:42:00,
2013-03-26 16:52:00,49.0,45.0,29.98,North,0,0.0,0.0,86,0.00,,,0.01,,2013-03-26 23:52:00,
2013-03-26 17:01:00,49.0,45.0,29.97,North,0,0.0,0.0,86,0.00,,,0.01,,2013-03-27 00:01:00,
2013-03-26 17:11:00,49.0,45.0,29.97,North,0,0.0,0.0,86,0.00,,,0.01,,2013-03-27 00:11:00,
2013-03-26 17:32:00,49.0,45.0,29.97,North,0,0.0,0.0,85,0.00,,,0.01,,2013-03-27 00:32:00,
2013-03-26 17:41:00,49.0,45.0,29.97,North,0,0.0,0.0,85,0.00,,,0.01,,2013-03-27 00:41:00,
2013-03-26 17:52:00,50.0,46.0,29.97,North,0,0.0,0.0,85,0.00,,,0.01,,2013-03-27 00:52:00,
2013-03-26 18:01:00,50.0,45.0,29.96,North,0,0.0,0.0,84,0.00,,,0.01,,2013-03-27 01:01:00,
2013-03-26 18:11:00,50.0,45.0,29.96,North,0,0.0,0.0,84,0.00,,,0.01,,2013-03-27 01:11:00,
2013-03-26 18:22:00,50.0,45.0,29.96,North,0,0.0,0.0,82,0.00,,,0.01,,2013-03-27 01:22:00,
2013-03-26 18:31:00,50.0,45.0,29.96,North,0,0.0,0.0,82,0.00,,,0.01,,2013-03-27 01:31:00,
2013-03-26 18:41:00,50.0,45.0,29.96,North,0,0.0,0.0,82,0.00,,,0.01,,2013-03-27 01:41:00,
2013-03-26 18:52:00,50.0,45.0,29.96,North,0,0.0,0.0,82,0.00,,,0.01,,2013-03-27 01:52:00,
2013-03-26 19:02:00,50.0,45.0,29.96,North,0,0.0,0.0,84,0.00,,,0.01,,2013-03-27 02:02:00,
2013-03-26 19:11:00,50.0,45.0,29.96,North,0,0.0,0.0,84,0.00,,,0.01,,2013-03-27 02:11:00,
2013-03-26 19:21:00,50.0,45.0,29.96,North,0,0.0,0.0,84,0.00,,,0.01,,2013-03-27 02:21:00,
2013-03-26 19:32:00,50.0,45.0,29.96,North,0,0.0,0.0,84,0.00,,,0.01,,2013-03-27 02:32:00,
2013-03-26 19:42:00,50.0,45.0,29.96,North,0,0.0,0.0,84,0.00,,,0.01,,2013-03-27 02:42:00,
2013-03-26 19:52:00,50.0,45.0,29.96,North,0,0.0,0.0,83,0.00,,,0.01,,2013-03-27 02:52:00,
2013-03-26 20:01:00,49.0,44.0,29.95,North,0,0.0,0.0,82,0.00,,,0.01,,2013-03-27 03:01:00,
2013-03-26 20:11:00,49.0,44.0,29.95,North,0,0.0,0.0,82,0.00,,,0.01,,2013-03-27 03:11:00,
2013-03-26 20:21:00,49.0,44.0,29.95,North,0,0.0,0.0,82,0.00,,,0.01,,2013-03-27 03:21:00,
2013-03-26 20:32:00,49.0,43.0,29.95,North,0,0.0,0.0,81,0.00,,,0.01,,2013-03-27 03:32:00,
2013-03-26 20:42:00,49.0,43.0,29.95,North,0,0.0,0.0,81,0.00,,,0.01,,2013-03-27 03:42:00,
2013-03-26 20:53:00,49.0,43.0,29.94,North,0,0.0,0.0,81,0.00,,,0.01,,2013-03-27 03:53:00,
2013-03-26 21:02:00,49.0,43.0,29.95,North,0,0.0,0.0,81,0.00,,,0.01,,2013-03-27 04:02:00,
2013-03-26 21:12:00,49.0,43.0,29.95,North,0,0.0,0.0,81,0.00,,,0.01,,2013-03-27 04:12:00,
2013-03-26 21:22:00,50.0,44.0,29.95,NNE,25,6.0,7.0,79,0.00,,,0.01,,2013-03-27 04:22:00,
2013-03-26 21:32:00,50.0,44.0,29.95,NNE,26,9.0,9.0,79,0.00,,,0.01,,2013-03-27 04:32:00,
2013-03-26 21:42:00,50.0,44.0,29.95,NNE,26,9.0,9.0,79,0.00,,,0.01,,2013-03-27 04:42:00,
2013-03-26 21:52:00,50.0,44.0,29.95,East,79,8.0,9.0,79,0.00,,,0.01,,2013-03-27 04:52:00,
2013-03-26 22:01:00,51.0,44.0,29.95,East,96,10.0,12.0,78,0.00,,,0.01,,2013-03-27 05:01:00,
2013-03-26 22:12:00,51.0,44.0,29.95,East,96,10.0,12.0,78,0.00,,,0.01,,2013-03-27 05:12:00,
2013-03-26 22:22:00,50.0,44.0,29.95,ENE,75,11.0,12.0,79,0.00,,,0.01,,2013-03-27 05:22:00,
2013-03-26 22:32:00,50.0,44.0,29.95,ENE,77,11.0,14.0,79,0.00,,,0.01,,2013-03-27 05:32:00,
2013-03-26 22:42:00,50.0,44.0,29.95,ENE,77,11.0,14.0,79,0.00,,,0.01,,2013-03-27 05:42:00,
2013-03-26 22:52:00,50.0,44.0,29.94,East,85,12.0,15.0,80,0.00,,,0.01,,2013-03-27 05:52:00,
2013-03-26 23:02:00,50.0,44.0,29.94,ENE,65,14.0,17.0,79,0.00,,,0.01,,2013-03-27 06:02:00,
2013-03-26 23:11:00,50.0,44.0,29.94,ENE,65,14.0,17.0,79,0.00,,,0.01,,2013-03-27 06:11:00,
2013-03-26 23:22:00,50.0,44.0,29.94,ENE,78,13.0,15.0,80,0.00,,,0.01,,2013-03-27 06:22:00,
2013-03-26 23:31:00,50.0,44.0,29.93,East,79,13.0,16.0,80,0.00,,,0.01,,2013-03-27 06:31:00,
2013-03-26 23:42:00,50.0,44.0,29.93,East,79,13.0,16.0,80,0.00,,,0.01,,2013-03-27 06:42:00,
2013-03-26 23:52:00,50.0,44.0,29.93,East,86,14.0,18.0,81,0.00,,,0.01,,2013-03-27 06:52:00,